| time (UTC) | temp F | wind direction | speed MPH | gust MPH | rain 1hr in | rain 24hr in | rain mn in | humidity % | barometer mb |
| 20260506043517 | 66 | 0.0 | 2.0 | 0.00 | 0.00 | 0.00 | 37 | 1010.4 | |
| 20260506042037 | 66 | 0.0 | 1.0 | 0.00 | 0.00 | 0.00 | 38 | 1010.3 | |
| 20260506040517 | 68 | 23 | 1.0 | 2.0 | 0.00 | 0.00 | 0.00 | 39 | 1010.4 |
| 20260506033537 | 70 | 248 | 1.0 | 7.0 | 0.00 | 0.00 | 0.00 | 33 | 1009.8 |
| 20260506032017 | 70 | 0.0 | 1.0 | 0.00 | 0.00 | 0.00 | 33 | 1009.6 | |
| 20260506030517 | 70 | 0.0 | 0.0 | 0.00 | 0.00 | 0.00 | 33 | 1009.6 | |
| 20260506025017 | 71 | 0.0 | 1.0 | 0.00 | 0.00 | 0.00 | 32 | 1009.6 | |
| 20260506023517 | 72 | 0.0 | 1.0 | 0.00 | 0.00 | 0.00 | 32 | 1009.5 | |
| 20260506022017 | 75 | 23 | 1.0 | 2.0 | 0.00 | 0.00 | 0.00 | 29 | 1009.6 |
| 20260506020517 | 75 | 23 | 1.0 | 3.0 | 0.00 | 0.00 | 0.00 | 29 | 1009.7 |
| 20260506015017 | 76 | 68 | 1.0 | 2.0 | 0.00 | 0.00 | 0.00 | 29 | 1009.7 |
| 20260506013517 | 77 | 45 | 3.0 | 6.0 | 0.00 | 0.00 | 0.00 | 27 | 1009.8 |
| 20260506012017 | 78 | 23 | 3.0 | 5.0 | 0.00 | 0.00 | 0.00 | 27 | 1009.7 |
| 20260506010536 | 79 | 23 | 2.0 | 7.0 | 0.00 | 0.00 | 0.00 | 27 | 1009.9 |
| 20260506005016 | 80 | 135 | 1.0 | 4.0 | 0.00 | 0.00 | 0.00 | 27 | 1010.1 |
| 20260506003517 | 79 | 23 | 1.0 | 5.0 | 0.00 | 0.00 | 0.00 | 26 | 1010.1 |
| 20260506002017 | 79 | 45 | 2.0 | 4.0 | 0.00 | 0.00 | 0.00 | 27 | 1010.3 |
| 20260506000517 | 79 | 0 | 3.0 | 6.0 | 0.00 | 0.00 | 0.00 | 26 | 1010.5 |
| 20260505235016 | 78 | 90 | 2.0 | 4.0 | 0.00 | 0.00 | 0.00 | 27 | 1010.5 |
| 20260505233517 | 78 | 90 | 2.0 | 9.0 | 0.00 | 0.00 | 0.00 | 27 | 1010.6 |
| 20260505232037 | 79 | 23 | 3.0 | 8.0 | 0.00 | 0.00 | 0.00 | 26 | 1010.9 |
| 20260505230557 | 80 | 90 | 4.0 | 8.0 | 0.00 | 0.00 | 0.00 | 24 | 1011.2 |
| 20260505225016 | 81 | 45 | 2.0 | 5.0 | 0.00 | 0.00 | 0.00 | 23 | 1011.3 |
| 20260505223617 | 81 | 45 | 5.0 | 10.0 | 0.00 | 0.00 | 0.00 | 23 | 1011.3 |
| 20260505222036 | 81 | 90 | 2.0 | 7.0 | 0.00 | 0.00 | 0.00 | 24 | 1011.7 |
| 20260505220516 | 81 | 90 | 3.0 | 7.0 | 0.00 | 0.00 | 0.00 | 24 | 1011.9 |
| 20260505215016 | 81 | 113 | 2.0 | 6.0 | 0.00 | 0.00 | 0.00 | 24 | 1012.3 |
| 20260505213516 | 79 | 45 | 2.0 | 7.0 | 0.00 | 0.00 | 0.00 | 24 | 1012.4 |
| 20260505212016 | 79 | 68 | 3.0 | 8.0 | 0.00 | 0.00 | 0.00 | 23 | 1012.6 |
| 20260505210516 | 79 | 113 | 2.0 | 4.0 | 0.00 | 0.00 | 0.00 | 24 | 1012.8 |
| 20260505205016 | 77 | 45 | 3.0 | 10.0 | 0.00 | 0.00 | 0.00 | 27 | 1012.8 |
| 20260505203516 | 75 | 45 | 5.0 | 11.0 | 0.00 | 0.00 | 0.00 | 27 | 1013.0 |
| 20260505202016 | 76 | 90 | 4.0 | 10.0 | 0.00 | 0.00 | 0.00 | 26 | 1013.3 |
| 20260505200516 | 74 | 45 | 6.0 | 13.0 | 0.00 | 0.00 | 0.00 | 27 | 1013.5 |
| 20260505195036 | 76 | 45 | 4.0 | 9.0 | 0.00 | 0.00 | 0.00 | 27 | 1013.8 |
| 20260505193516 | 76 | 45 | 2.0 | 6.0 | 0.00 | 0.00 | 0.00 | 28 | 1014.0 |
| 20260505192016 | 75 | 68 | 3.0 | 10.0 | 0.00 | 0.00 | 0.00 | 28 | 1014.1 |
| 20260505190516 | 74 | 68 | 4.0 | 9.0 | 0.00 | 0.00 | 0.00 | 31 | 1014.1 |
| 20260505185016 | 72 | 68 | 4.0 | 9.0 | 0.00 | 0.00 | 0.00 | 32 | 1014.2 |
| 20260505183516 | 72 | 45 | 5.0 | 9.0 | 0.00 | 0.00 | 0.00 | 31 | 1014.5 |
| 20260505182016 | 71 | 45 | 4.0 | 11.0 | 0.00 | 0.00 | 0.00 | 33 | 1014.6 |
| 20260505180516 | 71 | 90 | 2.0 | 7.0 | 0.00 | 0.00 | 0.00 | 36 | 1014.7 |
| 20260505175036 | 70 | 68 | 2.0 | 7.0 | 0.00 | 0.00 | 0.00 | 37 | 1014.9 |
| 20260505173516 | 69 | 45 | 3.0 | 7.0 | 0.00 | 0.00 | 0.00 | 37 | 1014.9 |
| 20260505172016 | 68 | 45 | 2.0 | 8.0 | 0.00 | 0.00 | 0.00 | 39 | 1015.0 |
| 20260505170536 | 66 | 68 | 2.0 | 6.0 | 0.00 | 0.00 | 0.00 | 42 | 1015.1 |
| 20260505165036 | 64 | 248 | 3.0 | 6.0 | 0.00 | 0.00 | 0.00 | 43 | 1015.1 |
| 20260505163516 | 65 | 113 | 2.0 | 4.0 | 0.00 | 0.00 | 0.00 | 46 | 1015.3 |
| 20260505162015 | 63 | 23 | 2.0 | 5.0 | 0.00 | 0.00 | 0.00 | 48 | 1015.3 |
| 20260505160515 | 63 | 68 | 3.0 | 9.0 | 0.00 | 0.00 | 0.00 | 49 | 1015.1 |
| 20260505152015 | 61 | 68 | 1.0 | 3.0 | 0.00 | 0.00 | 0.00 | 51 | 1015.3 |
| 20260505150516 | 60 | 45 | 2.0 | 3.0 | 0.00 | 0.00 | 0.00 | 55 | 1015.2 |
| 20260505140515 | 57 | 0.0 | 1.0 | 0.00 | 0.00 | 0.00 | 54 | 1015.0 | |
| 20260505125015 | 52 | 0.0 | 1.0 | 0.00 | 0.00 | 0.00 | 59 | 1014.3 | |
| 20260505123515 | 52 | 0.0 | 0.0 | 0.00 | 0.00 | 0.00 | 58 | 1014.0 | |
| 20260505122017 | 52 | 0.0 | 0.0 | 0.00 | 0.00 | 0.00 | 59 | 1013.8 | |
| 20260505120537 | 53 | 0.0 | 0.0 | 0.00 | 0.00 | 0.00 | 58 | 1013.7 | |
| 20260505115037 | 53 | 0.0 | 0.0 | 0.00 | 0.00 | 0.00 | 56 | 1013.7 | |
| 20260505113515 | 53 | 0.0 | 0.0 | 0.00 | 0.00 | 0.00 | 59 | 1013.7 | |
| 20260505112017 | 54 | 0.0 | 0.0 | 0.00 | 0.00 | 0.00 | 58 | 1013.7 | |
| 20260505110517 | 54 | 0.0 | 0.0 | 0.00 | 0.00 | 0.00 | 58 | 1013.7 | |
| 20260505102017 | 55 | 0.0 | 0.0 | 0.00 | 0.00 | 0.00 | 55 | 1013.4 | |
| 20260505100517 | 55 | 0.0 | 0.0 | 0.00 | 0.00 | 0.00 | 55 | 1013.4 | |
| 20260505095017 | 55 | 0.0 | 0.0 | 0.00 | 0.00 | 0.00 | 56 | 1013.0 | |
| 20260505093517 | 56 | 0.0 | 0.0 | 0.00 | 0.00 | 0.00 | 54 | 1013.0 | |
| 20260505092017 | 56 | 225 | 1.0 | 2.0 | 0.00 | 0.00 | 0.00 | 54 | 1012.8 |
| 20260505090517 | 57 | 0.0 | 0.0 | 0.00 | 0.00 | 0.00 | 52 | 1012.8 | |
| 20260505085017 | 57 | 0.0 | 2.0 | 0.00 | 0.00 | 0.00 | 53 | 1012.6 | |
| 20260505083537 | 57 | 0.0 | 0.0 | 0.00 | 0.00 | 0.00 | 54 | 1012.5 | |
| 20260505082017 | 58 | 0.0 | 0.0 | 0.00 | 0.00 | 0.00 | 54 | 1012.5 | |
| 20260505080537 | 58 | 0.0 | 2.0 | 0.00 | 0.00 | 0.00 | 53 | 1012.3 | |
| 20260505075056 | 59 | 0.0 | 1.0 | 0.00 | 0.00 | 0.00 | 52 | 1012.1 | |
| 20260505073516 | 59 | 0.0 | 1.0 | 0.00 | 0.00 | 0.00 | 51 | 1012.0 | |
| 20260505072016 | 60 | 0.0 | 1.0 | 0.00 | 0.00 | 0.00 | 50 | 1011.8 | |
| 20260505070516 | 60 | 225 | 1.0 | 2.0 | 0.00 | 0.00 | 0.00 | 50 | 1011.5 |
| 20260505065015 | 60 | 0.0 | 1.0 | 0.00 | 0.00 | 0.00 | 48 | 1011.3 | |
| 20260505063515 | 61 | 0.0 | 1.0 | 0.00 | 0.00 | 0.00 | 48 | 1011.0 | |
| 20260505062016 | 62 | 0.0 | 1.0 | 0.00 | 0.00 | 0.00 | 49 | 1010.8 | |
| 20260505060516 | 61 | 0.0 | 2.0 | 0.00 | 0.00 | 0.00 | 49 | 1010.6 | |
| 20260505055015 | 62 | 0.0 | 0.0 | 0.00 | 0.00 | 0.00 | 48 | 1010.5 | |
| 20260505053515 | 62 | 0.0 | 2.0 | 0.00 | 0.00 | 0.00 | 47 | 1010.4 | |
| 20260505052015 | 63 | 0.0 | 1.0 | 0.00 | 0.00 | 0.00 | 46 | 1010.1 | |
| 20260505050515 | 64 | 0.0 | 1.0 | 0.00 | 0.00 | 0.00 | 46 | 1010.0 |